Red Oak, IA

5:08 AM CDT on July 25, 2017 (GMT -0500)
Red Oak Municipal

Weather History for KRDK - March, 2014

Change the Weather History Date:

Sunday, March 9, 2014

  Actual Average Record
Temperature  
Mean Temperature 48 °F -  
Max Temperature 66 °F 49 °F 77 °F (1986)
Min Temperature 30 °F 24 °F -3 °F (1978)
Degree Days  
Heating Degree Days 17    
Moisture  
Dew Point 30 °F    
Average Humidity 46    
Maximum Humidity 75    
Minimum Humidity 28    
Precipitation  
Precipitation 0.00 in - - ()
Sea Level Pressure  
Sea Level Pressure 29.97 in    
Wind  
Wind Speed 17 mph (SSW)    
Max Wind Speed 33 mph    
Max Gust Speed 43 mph    
Visibility 10 miles    
Events      
Averages and records for this station are not official NWS values.
T = Trace of Precipitation, MM = Missing Value Source: NWS Daily Summary

Daily Weather History Graph

Daily Weather History Graph

Search for Another Location

Airport or City:

Trip Planner

Search our weather history database for the weather conditions in past years. The results will help you decide how hot, cold, wet, or windy it might be!

Date:

Astronomy

Mar. 09, 2014 Rise Set
Actual Time 7:42 AM CDT 7:21 PM CDT
Civil Twilight 7:15 AM CDT 7:48 PM CDT
Nautical Twilight 6:43 AM CDT 8:20 PM CDT
Astronomical Twilight 6:11 AM CDT 8:52 PM CDT
Moon 1:12 PM CDT (3/9) 3:10 AM CDT (3/9)
Length of Visible Light 12h 33m
Length of Day
11h 38m
First Quarter, 61% of the Moon is Illuminated
Mar 9
First Quarter
Mar 16
Full
Mar 23
Last Quarter
Mar 30
New
Apr 7
First Quarter

Hourly Weather History & Observations

Time (CDT) Temp. Windchill Dew Point Humidity Pressure Visibility Wind Dir Wind Speed Gust Speed Precip Events Conditions
8:55 AM 30.2 °F 20.8 °F 23.0 °F 75% 30.16 in 10.0 mi South 11.5 mph - N/A   Clear
9:15 AM 32.0 °F 22.1 °F 24.8 °F 75% 30.15 in 10.0 mi South 13.8 mph - N/A   Clear
9:35 AM 33.8 °F 24.3 °F 24.8 °F 70% 30.14 in 10.0 mi South 13.8 mph - N/A   Clear
9:55 AM 37.4 °F 28.5 °F 26.6 °F 65% 30.13 in 10.0 mi South 15.0 mph - N/A   Clear
10:15 AM 41.0 °F 32.8 °F 26.6 °F 57% 30.12 in 10.0 mi South 16.1 mph - N/A   Clear
10:35 AM 42.8 °F 34.0 °F 26.6 °F 53% 30.09 in 10.0 mi SSW 20.7 mph - N/A   Clear
10:55 AM 42.8 °F 34.5 °F 26.6 °F 53% 30.09 in 10.0 mi SSW 18.4 mph - N/A   Clear
11:15 AM 44.6 °F 36.4 °F 26.6 °F 49% 30.07 in 10.0 mi SSW 20.7 mph 26.5 mph N/A   Clear
11:35 AM 48.2 °F - 28.4 °F 46% 30.06 in 10.0 mi SSW 19.6 mph 26.5 mph N/A   Clear
11:55 AM 48.2 °F - 28.4 °F 46% 30.04 in 10.0 mi South 21.9 mph - N/A   Clear
12:15 PM 51.8 °F - 30.2 °F 44% 30.03 in 10.0 mi SSW 21.9 mph 27.6 mph N/A   Clear
12:35 PM 53.6 °F - 30.2 °F 41% 30.01 in 10.0 mi SSW 23.0 mph - N/A   Clear
12:55 PM 55.4 °F - 30.2 °F 38% 30.00 in 10.0 mi SSW 21.9 mph 29.9 mph N/A   Clear
1:15 PM 57.2 °F - 32.0 °F 38% 29.98 in 10.0 mi SSW 25.3 mph 31.1 mph N/A   Clear
1:35 PM 57.2 °F - 32.0 °F 38% 29.97 in 10.0 mi SW 27.6 mph 35.7 mph N/A   Clear
1:55 PM 59.0 °F - 32.0 °F 36% 29.95 in 10.0 mi SSW 23.0 mph 36.8 mph N/A   Clear
2:15 PM 60.8 °F - 33.8 °F 36% 29.93 in 10.0 mi SSW 25.3 mph 35.7 mph N/A   Clear
2:35 PM 62.6 °F - 32.0 °F 32% 29.91 in 10.0 mi SW 31.1 mph 39.1 mph N/A   Clear
2:55 PM 62.6 °F - 32.0 °F 32% 29.90 in 10.0 mi SW 26.5 mph 36.8 mph N/A   Clear
3:15 PM 64.4 °F - 32.0 °F 30% 29.89 in 10.0 mi SW 33.4 mph 42.6 mph N/A   Clear
3:30 PM 64.4 °F - 32.0 °F 30% 29.89 in 10.0 mi SW 25.3 mph 41.4 mph N/A   Clear
5:35 PM 66.2 °F - 32.0 °F 28% 29.86 in 10.0 mi SW 21.9 mph 28.8 mph N/A   Clear
7:10 PM 59.0 °F - 32.0 °F 36% 29.85 in 10.0 mi SSW 11.5 mph - N/A   Clear
7:35 PM 57.2 °F - 32.0 °F 38% 29.85 in 10.0 mi SSW 11.5 mph - N/A   Clear
7:55 PM 57.2 °F - 32.0 °F 38% 29.84 in 10.0 mi SSW 12.7 mph - N/A   Clear
8:20 PM 51.8 °F - 32.0 °F 47% 29.84 in 10.0 mi SSW 9.2 mph - N/A   Clear
8:35 PM 50.0 °F - 32.0 °F 50% 29.84 in 10.0 mi SSW 8.1 mph - N/A   Clear
9:30 PM 48.2 °F - 32.0 °F 54% 29.84 in 10.0 mi South 10.4 mph - N/A   Clear
9:50 PM 48.2 °F - 32.0 °F 54% 29.84 in 10.0 mi South 8.1 mph - N/A   Clear
10:15 PM 46.4 °F 42.4 °F 32.0 °F 57% 29.84 in 10.0 mi South 8.1 mph - N/A   Clear